Hourly Data Report for September 12, 2017

All times are specified in Local Standard Time (LST). Add 1 hour to adjust for Daylight Saving Time where and when it is observed.

MONCTON INTL A
NEW BRUNSWICK

46°06'44.000" N
64°40'43.000" W
70.70 m
8103201
71705
YQM

Download Data

Hourly Data (September 2017)
Hourly Data Report for September 12, 2017
Temp Definition
°C
Dew Point Temp Definition
°C
Rel Hum Definition
%
Wind Dir Definition
10's deg

Wind Spd Definition
km/h
Visibility Definition
km
Stn Press Definition
kPa
Hmdx Definition


Wind Chill Definition


Weather Definition


TIME
00:00 Legend Double Dagger 9.8 9.2 96 33 10 24.1 100.61     LegendNANA
01:00 Legend Double Dagger 9.9 9.1 95 31 8 24.1 100.57     LegendNANA
02:00 Legend Double Dagger 9.2 8.7 97 29 9 24.1 100.52     Mainly Clear
03:00 Legend Double Dagger 9.1 8.7 97 30 10 24.1 100.45     LegendNANA
04:00 Legend Double Dagger 8.9 8.5 97 29 9 1.0 100.45     Fog
05:00 Legend Double Dagger 7.5 7.2 98 24 10 1.2 100.43     Fog
06:00 Legend Double Dagger 7.9 7.5 98 27 6 3.6 100.39     Fog
07:00 Legend Double Dagger 8.8 8.4 97 23 10 24.1 100.40     LegendNANA
08:00 Legend Double Dagger 11.6 10.2 91 29 4 24.1 100.39     Clear
09:00 Legend Double Dagger 14.5 10.7 78 34 8 24.1 100.32     LegendNANA
10:00 Legend Double Dagger 16.4 10.1 66 32 8 24.1 100.29     LegendNANA
11:00 Legend Double Dagger 17.9 10.0 60 32 7 24.1 100.22     Mainly Clear
12:00 Legend Double Dagger 19.4 10.8 57 6 4 24.1 100.14     LegendNANA
13:00 Legend Double Dagger 20.8 10.9 53 28 8 24.1 100.06     LegendNANA
14:00 Legend Double Dagger 20.9 10.6 51 26 6 24.1 99.95     Mostly Cloudy
15:00 Legend Double Dagger 21.3 11.1 52 25 9 24.1 99.86     LegendNANA
16:00 Legend Double Dagger 21.7 11.0 50 28 5 24.1 99.82     LegendNANA
17:00 Legend Double Dagger 21.7 11.8 53 25 9 24.1 99.74     Mainly Clear
18:00 Legend Double Dagger 20.2 12.2 60 14 8 24.1 99.70     LegendNANA
19:00 Legend Double Dagger 16.2 12.9 80 12 12 24.1 99.67     LegendNANA
20:00 Legend Double Dagger 13.2 11.8 91 13 8 24.1 99.68     Mostly Cloudy
21:00 Legend Double Dagger 12.3 11.2 93 9 5 24.1 99.66     LegendNANA
22:00 Legend Double Dagger 13.3 11.4 88 24 7 24.1 99.65     LegendNANA
23:00 Legend Double Dagger 11.4 11.0 97 35 4 24.1 99.68     Mostly Cloudy

Notes on Data Quality.

Legend

  • E = Estimated
  • M = Missing
  • NA = Not Available
  • ‡ = Partner data that is not subject to review by the National Climate Archives
Date modified: